Location: Cartignies
(50.0929°N, 3.8447°E)
Time: 14:16:07
(UTC+00:00)

Cosmos 967 Rocket - Pass Details

Date: 12 January 2026
Orbit: 941 x 995 km, 65.8° (Epoch: 16 February)

Event Time Altitude Azimuth Distance (km) Brightness Sun altitude
Rises 18:54:46 0° 321° (NW) 3,718 8.0 -26.1°
Reaches altitude 10° 18:57:24 10° 324° (NW) 2,769 7.2 -26.6°
Enters shadow 19:03:43 63° 39° (NE) 1,103 4.5 -27.6°
